Regional Weather Roundup
Issued by NWS

Home | Current Version | Previous Version | Graphics & Text | Print | Product List | Glossary Off
Versions: 1 2 3 4 5 6 7 8 9 10 11 12 13 14 15 16 17 18 19 20 21 22 23 24 25 26 27 28 29 30 31 32 33 34 35 36 37 38 39 40 41 42 43 44 45 46 47 48 49 50

000
ASUS43 KMKX 240828
RWRWI

WISCONSIN REGIONAL WEATHER ROUNDUP
NATIONAL WEATHER SERVICE MILWAUKEE/SULLIVAN WI
300 AM CDT SUN MAY 24 2015

NOTE: "FAIR" INDICATES FEW OR NO CLOUDS BELOW 12,000 FEET WITH NO
SIGNIFICANT WEATHER AND/OR OBSTRUCTIONS TO VISIBILITY.

WIZ001-002-006>008-014>016-023>028-240900-
NORTHWEST WISCONSIN

CITY           SKY/WX    TMP DP  RH WIND       PRES   REMARKS
SUPERIOR ARPT  PTCLDY    49  44  81 S3        30.13S
ASHLAND        PTCLDY    44  42  93 CALM      30.15S
HAYWARD        CLOUDY    53  47  79 CALM      30.16S
SIREN          CLOUDY    55  51  86 CALM      30.14S
CUMBERLAND     CLOUDY    57  46  67 E6        30.14F
RICE LAKE      CLOUDY    56  53  87 CALM      30.16F
CHETEK         CLOUDY    58  49  73 CALM      30.15S
LADYSMITH      LGT RAIN  56  50  78 CALM      30.17S
EAU CLAIRE     CLOUDY    58  47  66 NE3       30.13S
MENOMONIE      CLOUDY    59  46  61 CALM      30.13S
NEW RICHMOND   CLOUDY    59  48  65 CALM      30.14S
OSCEOLA        LGT RAIN  58  52  80 NE8       30.15F
$$

WIZ003>005-009-010-017-018-240900-
NORTH CENTRAL WISCONSIN

CITY           SKY/WX    TMP DP  RH WIND       PRES   REMARKS
MANITOWISH WTR CLOUDY    53  49  88 CALM      30.18S
ARBOR VITAE    CLOUDY    57  48  72 CALM      30.18R
WOODRUFF       CLOUDY    57  48  72 CALM      30.18R
RHINELANDER    CLOUDY    55  48  77 CALM      30.19R
EAGLE RIVER    CLOUDY    55  44  64 CALM      30.18R
LAND O LAKES   CLOUDY    52  45  77 CALM      30.19R
PHILLIPS       CLOUDY    55  49  83 CALM      30.17R
TOMAHAWK       CLOUDY    53  49  84 CALM      30.18S
MEDFORD        CLOUDY    54  48  78 CALM      30.17S
MERRILL        CLOUDY    55  51  86 CALM      30.19R
$$

WIZ029-030-035-036-043>047-240900-
CENTRAL WISCONSIN

CITY           SKY/WX    TMP DP  RH WIND       PRES   REMARKS
WAUSAU         MOCLDY    57  49  74 E3        30.16R
MOSINEE        MOCLDY    59  43  55 E3        30.18S
MARSHFIELD     PTCLDY    57  46  66 NE3       30.16S
STEVENS POINT  MOCLDY    53  49  86 CALM      30.17S
WAUPACA        MOCLDY    55  50  81 CALM      30.18R
WAUTOMA        PTCLDY    50  49  96 CALM      30.18R
WISC RAPIDS    PTCLDY    54  45  71 CALM      30.18R
CAMP DOUGLAS   MOCLDY    49  49 100 CALM      30.16R
$$

WIZ011>013-019>022-031-037>040-048>050-240900-
NORTHEAST WISCONSIN

CITY           SKY/WX    TMP DP  RH WIND       PRES   REMARKS
ANTIGO         LGT RAIN  56  51  84 CALM      30.20R
SHAWANO        MOCLDY    56  47  72 CALM      30.17R
OCONTO         PTCLDY    52  48  86 CALM      30.17R
STURGEON BAY   CLOUDY    61  39  44 S6        30.20R
GREEN BAY      PTCLDY    62  42  47 S5        30.17R
MANITOWOC      CLEAR     49  45  86 E3        30.18S
APPLETON       MOCLDY    59  43  55 S3        30.18R
CLINTONVILLE   MOCLDY    55  46  71 CALM      30.17R
OSHKOSH        PTCLDY    54  43  66 CALM      30.17R
$$

WIZ032>034-041-042-053>061-240900-
SOUTHWEST WISCONSIN

CITY           SKY/WX    TMP DP  RH WIND       PRES   REMARKS
LA CROSSE      CLOUDY    60  50  69 SE6       30.14R
SPARTA         CLOUDY    49  47  93 CALM      30.16S
VIROQUA        PTCLDY    58  46  62 SE7       30.16S
BOSCOBEL       CLOUDY    55  50  83 CALM      30.16R
PRAIRIE DU CHI CLOUDY    56  49  78 E3        30.14S
PLATTEVILLE    CLOUDY    62  49  63 SE6       30.16S
$$

WIZ056-057-062-063-064-067-068-240900-
SOUTH CENTRAL WISCONSIN

CITY           SKY/WX    TMP DP  RH WIND       PRES   REMARKS
REEDSBURG      MOCLDY    52  49  91 CALM      30.16S
BARABOO/DELLS  PTCLDY    53  45  73 CALM      30.17R
LONE ROCK      MOCLDY    54  50  86 CALM      30.17R
MINERAL POINT  PTCLDY    63  43  48 SE5       30.17R
MADISON        MOCLDY    53  47  79 CALM      30.17R
MIDDLETON      MOCLDY    54  46  75 CALM      30.18R
WATERTOWN      PTCLDY    56  45  66 CALM      30.17R
MONROE         PTCLDY    61  48  63 S8        30.17R
JANESVILLE     PTCLDY    55  45  67 CALM      30.18R
$$

WIZ051-052-058>065-066-070>072-240900-
SOUTHEAST WISCONSIN

CITY           SKY/WX    TMP DP  RH WIND       PRES   REMARKS
MILWAUKEE      PTCLDY    55  39  54 CALM      30.18R
WAUKESHA       PTCLDY    55  39  54 S6        30.20R
MILWAUKEE/TIMM CLEAR     52  41  66 CALM      30.19R
RACINE         PTCLDY    58  43  57 SW7       30.20R
BURLINGTON     PTCLDY    49  46  87 CALM      30.19R
KENOSHA        PTCLDY    55  45  68 SW6       30.19R
FOND DU LAC    CLEAR     56  43  61 S5        30.17R
SHEBOYGAN      CLEAR     46  40  79 CALM      30.18S
WEST BEND      CLEAR     46  43  87 CALM      30.19R
JUNEAU         CLEAR     57  43  59 SE3       30.19R
$$

LSZ147-162-240900-
LAKE SUPERIOR

STATION/POSITION TIME  TEMP    WIND        PRES    WAVE
                       AIR SEA DIR/SP/G            HT/PER
                 (UTC) (F)     (DEG/KT/KT) (MB)    (FT/S)
W MID LAKE BUOY  0750   45 36  240/ 10/ 12   N/A     1/ 3
DEVILS ISLAND    0800   60     240/ 12/ 12   N/A
PORT WING        0600   57     160/  6/  7   N/A
SAXON HARBOR     0700   51     200/  5/  6   N/A
$$

LMZ867-665-643>646-240900-
LAKE MICHIGAN

STATION/POSITION TIME  TEMP    WIND        PRES    WAVE
                       AIR SEA DIR/SP/G            HT/PER
                 (UTC) (F)     (DEG/KT/KT) (MB)    (FT/S)
CHAMBERS ISLAND  0700   62     210/  4/  7   N/A
N MID LAKE BUOY  0750   42 36  210/  6/  8   N/A     1/ 4
NORTHPORT PIER   0700   65     240/  3/  8   N/A
SISTER BAY       0702   62     330/  4/  5   N/A
KEWAUNEE LAKESHO 0700   51      CALM  /  3   N/A
SHEBOYGAN LAKESH 0800   54     220/  3/  3   N/A
PORT WASHINGTON  0700   51      CALM  /  1   N/A
ATWATER BUOY     0800   48 45  260/  2/  2   N/A
MILWAUKEE LAKESH 0800   51      70/  1/  1   N/A
S MID LAKE BUOY  0750   47 38  170/ 10/ 10   N/A     0
KENOSHA   LAKESH 0800   53     180/  8/  9   N/A
$$

TC  - TEMPERATURE IN CELSIUS
VSB - VISIBILITY IN STATUTE MILES
WCI - WIND CHILL INDEX
HX  - HEAT INDEX



USA.gov is the U.S. government's official web portal to all federal, state and local government web resources and services.